| time (UTC) | temp C | wind direction | speed KPH | gust KPH | rain 1hr cm | rain 24hr cm | rain mn cm | humidity % | barometer mb |
| 20260507131007 | 10 | 22 | 1.6 | 6.4 | 0.00 | 0.00 | 0.00 | 58 | 1016.7 |
| 20260507130507 | 10 | 15 | 3.2 | 4.8 | 0.00 | 0.00 | 0.00 | 57 | 1016.7 |
| 20260507130006 | 10 | 9 | 1.6 | 4.8 | 0.00 | 0.00 | 0.00 | 56 | 1016.7 |
| 20260507125506 | 10 | 5 | 3.2 | 8.0 | 0.00 | 0.00 | 0.00 | 59 | 1016.8 |
| 20260507124504 | 10 | 5 | 3.2 | 6.4 | 0.00 | 0.00 | 0.00 | 60 | 1016.8 |
| 20260507124002 | 10 | 5 | 3.2 | 6.4 | 0.00 | 0.00 | 0.00 | 61 | 1016.8 |
| 20260507123502 | 10 | 360 | 3.2 | 4.8 | 0.00 | 0.00 | 0.00 | 59 | 1016.9 |
| 20260507123002 | 10 | 355 | 3.2 | 6.4 | 0.00 | 0.00 | 0.00 | 58 | 1016.9 |
| 20260507122501 | 10 | 24 | 3.2 | 6.4 | 0.00 | 0.00 | 0.00 | 61 | 1016.8 |
| 20260507122104 | 10 | 9 | 4.8 | 6.4 | 0.00 | 0.00 | 0.00 | 61 | 1016.9 |
| 20260507121601 | 10 | 5 | 3.2 | 6.4 | 0.00 | 0.00 | 0.00 | 59 | 1016.9 |
| 20260507121059 | 10 | 5 | 3.2 | 4.8 | 0.00 | 0.00 | 0.00 | 58 | 1016.9 |
| 20260507120559 | 10 | 28 | 1.6 | 4.8 | 0.00 | 0.00 | 0.00 | 57 | 1016.9 |
| 20260507120059 | 10 | 17 | 1.6 | 4.8 | 0.00 | 0.00 | 0.00 | 56 | 1016.9 |
| 20260507115558 | 9 | 24 | 3.2 | 6.4 | 0.00 | 0.00 | 0.00 | 57 | 1016.9 |
| 20260507114558 | 9 | 14 | 3.2 | 6.4 | 0.00 | 0.00 | 0.00 | 60 | 1017.0 |
| 20260507114157 | 9 | 9 | 3.2 | 6.4 | 0.00 | 0.00 | 0.00 | 60 | 1017.0 |
| 20260507113559 | 9 | 5 | 3.2 | 8.0 | 0.00 | 0.00 | 0.00 | 61 | 1017.0 |
| 20260507113128 | 9 | 9 | 3.2 | 6.4 | 0.00 | 0.00 | 0.00 | 61 | 1017.0 |
| 20260507112556 | 9 | 5 | 3.2 | 6.4 | 0.00 | 0.00 | 0.00 | 64 | 1017.1 |
| 20260507112057 | 8 | 5 | 3.2 | 6.4 | 0.00 | 0.00 | 0.00 | 62 | 1017.2 |
| 20260507111553 | 8 | 12 | 3.2 | 6.4 | 0.00 | 0.00 | 0.00 | 63 | 1017.2 |
| 20260507111052 | 8 | 5 | 3.2 | 8.0 | 0.00 | 0.00 | 0.00 | 64 | 1017.2 |
| 20260507110552 | 8 | 5 | 4.8 | 8.0 | 0.00 | 0.00 | 0.00 | 64 | 1017.3 |
| 20260507110052 | 8 | 360 | 4.8 | 8.0 | 0.00 | 0.00 | 0.00 | 65 | 1017.2 |
| 20260507105551 | 8 | 360 | 4.8 | 8.0 | 0.00 | 0.00 | 0.00 | 66 | 1017.2 |
| 20260507104600 | 8 | 5 | 4.8 | 8.0 | 0.00 | 0.00 | 0.00 | 66 | 1017.2 |
| 20260507104050 | 8 | 5 | 3.2 | 8.0 | 0.00 | 0.00 | 0.00 | 66 | 1017.2 |
| 20260507103650 | 8 | 5 | 4.8 | 8.0 | 0.00 | 0.00 | 0.00 | 66 | 1017.2 |
| 20260507103050 | 8 | 360 | 4.8 | 8.0 | 0.00 | 0.00 | 0.00 | 66 | 1017.2 |
| 20260507102549 | 8 | 360 | 3.2 | 8.0 | 0.00 | 0.00 | 0.00 | 66 | 1017.2 |
| 20260507102050 | 8 | 5 | 4.8 | 8.0 | 0.00 | 0.00 | 0.00 | 67 | 1017.2 |
| 20260507101553 | 8 | 9 | 3.2 | 6.4 | 0.00 | 0.00 | 0.00 | 66 | 1017.2 |
| 20260507101050 | 8 | 5 | 1.6 | 8.0 | 0.00 | 0.00 | 0.00 | 68 | 1017.2 |
| 20260507100548 | 7 | 5 | 4.8 | 8.0 | 0.00 | 0.00 | 0.00 | 66 | 1017.2 |
| 20260507100056 | 8 | 5 | 4.8 | 8.0 | 0.00 | 0.00 | 0.00 | 65 | 1017.2 |
| 20260507095547 | 8 | 5 | 3.2 | 6.4 | 0.00 | 0.00 | 0.00 | 66 | 1017.2 |
| 20260507094552 | 8 | 5 | 1.6 | 6.4 | 0.00 | 0.00 | 0.00 | 66 | 1017.1 |
| 20260507094051 | 8 | 5 | 3.2 | 4.8 | 0.00 | 0.00 | 0.00 | 66 | 1017.1 |
| 20260507093548 | 8 | 15 | 1.6 | 4.8 | 0.00 | 0.00 | 0.00 | 67 | 1017.1 |
| 20260507093046 | 8 | 13 | 1.6 | 6.4 | 0.00 | 0.00 | 0.00 | 69 | 1017.1 |
| 20260507092545 | 7 | 17 | 1.6 | 6.4 | 0.00 | 0.00 | 0.00 | 71 | 1017.2 |
| 20260507092049 | 7 | 10 | 3.2 | 6.4 | 0.00 | 0.00 | 0.00 | 72 | 1017.2 |
| 20260507091547 | 7 | 5 | 1.6 | 6.4 | 0.00 | 0.00 | 0.00 | 73 | 1017.2 |
| 20260507091043 | 7 | 11 | 1.6 | 6.4 | 0.00 | 0.00 | 0.00 | 74 | 1017.2 |
| 20260507090543 | 7 | 11 | 1.6 | 6.4 | 0.00 | 0.00 | 0.00 | 75 | 1017.2 |
| 20260507090041 | 7 | 5 | 3.2 | 8.0 | 0.00 | 0.00 | 0.00 | 75 | 1017.2 |
| 20260507085540 | 7 | 5 | 3.2 | 8.0 | 0.00 | 0.00 | 0.00 | 76 | 1017.2 |
| 20260507084550 | 7 | 5 | 3.2 | 8.0 | 0.00 | 0.00 | 0.00 | 76 | 1017.1 |
| 20260507084038 | 7 | 5 | 1.6 | 8.0 | 0.00 | 0.00 | 0.00 | 77 | 1017.1 |
| 20260507083536 | 6 | 5 | 3.2 | 8.0 | 0.00 | 0.00 | 0.00 | 77 | 1017.1 |
| 20260507083035 | 6 | 5 | 3.2 | 6.4 | 0.00 | 0.00 | 0.00 | 77 | 1017.0 |
| 20260507082535 | 6 | 312 | 1.6 | 4.8 | 0.00 | 0.00 | 0.00 | 77 | 1017.1 |
| 20260507082034 | 6 | 49 | 0.0 | 3.2 | 0.00 | 0.00 | 0.00 | 79 | 1017.1 |
| 20260507081532 | 6 | 97 | 1.6 | 3.2 | 0.00 | 0.00 | 0.00 | 80 | 1017.0 |
| 20260507081031 | 5 | 103 | 1.6 | 4.8 | 0.00 | 0.00 | 0.00 | 80 | 1017.0 |
| 20260507080529 | 5 | 132 | 1.6 | 4.8 | 0.00 | 0.00 | 0.00 | 81 | 1017.0 |
| 20260507080030 | 5 | 109 | 1.6 | 4.8 | 0.00 | 0.00 | 0.00 | 79 | 1017.0 |
| 20260507075530 | 5 | 99 | 1.6 | 4.8 | 0.00 | 0.00 | 0.00 | 79 | 1017.0 |
| 20260507074528 | 5 | 101 | 1.6 | 4.8 | 0.00 | 0.00 | 0.00 | 81 | 1016.9 |
| 20260507074026 | 5 | 115 | 1.6 | 4.8 | 0.00 | 0.00 | 0.00 | 81 | 1016.9 |
| 20260507073525 | 4 | 124 | 1.6 | 3.2 | 0.00 | 0.00 | 0.00 | 81 | 1016.9 |
| 20260507073026 | 4 | 128 | 1.6 | 3.2 | 0.00 | 0.00 | 0.00 | 81 | 1016.8 |
| 20260507072524 | 4 | 84 | 0.0 | 3.2 | 0.00 | 0.00 | 0.00 | 82 | 1016.8 |
| 20260507072023 | 3 | 84 | 0.0 | 3.2 | 0.00 | 0.00 | 0.00 | 81 | 1016.8 |
| 20260507071523 | 3 | 101 | 0.0 | 3.2 | 0.00 | 0.00 | 0.00 | 81 | 1016.7 |
| 20260507071022 | 3 | 101 | 1.6 | 4.8 | 0.00 | 0.00 | 0.00 | 81 | 1016.8 |
| 20260507070522 | 3 | 100 | 1.6 | 4.8 | 0.00 | 0.00 | 0.00 | 80 | 1016.8 |
| 20260507070024 | 3 | 100 | 0.0 | 3.2 | 0.00 | 0.00 | 0.00 | 80 | 1016.8 |
| 20260507065522 | 3 | 100 | 0.0 | 1.6 | 0.00 | 0.00 | 0.00 | 80 | 1016.7 |
| 20260507064523 | 3 | 100 | 0.0 | 1.6 | 0.00 | 0.00 | 0.00 | 80 | 1016.7 |
| 20260507064023 | 4 | 100 | 0.0 | 1.6 | 0.00 | 0.00 | 0.00 | 80 | 1016.7 |
| 20260507063523 | 4 | 100 | 0.0 | 1.6 | 0.00 | 0.00 | 0.00 | 80 | 1016.7 |
| 20260507063022 | 4 | 100 | 0.0 | 0.0 | 0.00 | 0.00 | 0.00 | 81 | 1016.8 |
| 20260507062521 | 4 | 100 | 0.0 | 0.0 | 0.00 | 0.00 | 0.00 | 81 | 1016.7 |
| 20260507062021 | 3 | 100 | 0.0 | 1.6 | 0.00 | 0.00 | 0.00 | 81 | 1016.7 |
| 20260507061521 | 3 | 100 | 0.0 | 1.6 | 0.00 | 0.00 | 0.00 | 81 | 1016.7 |
| 20260507061020 | 3 | 100 | 0.0 | 1.6 | 0.00 | 0.00 | 0.00 | 81 | 1016.8 |
| 20260507060520 | 3 | 100 | 0.0 | 1.6 | 0.00 | 0.00 | 0.00 | 82 | 1016.7 |
| 20260507060031 | 3 | 100 | 0.0 | 1.6 | 0.00 | 0.00 | 0.00 | 82 | 1016.7 |
| 20260507055519 | 3 | 100 | 0.0 | 0.0 | 0.00 | 0.00 | 0.00 | 82 | 1016.6 |
| 20260507054525 | 3 | 100 | 0.0 | 1.6 | 0.00 | 0.00 | 0.00 | 82 | 1016.6 |
| 20260507054020 | 3 | 100 | 0.0 | 3.2 | 0.00 | 0.00 | 0.00 | 82 | 1016.6 |
| 20260507053518 | 2 | 100 | 0.0 | 3.2 | 0.00 | 0.00 | 0.00 | 82 | 1016.6 |
| 20260507053016 | 2 | 100 | 1.6 | 4.8 | 0.00 | 0.00 | 0.00 | 82 | 1016.6 |
| 20260507052519 | 2 | 105 | 1.6 | 4.8 | 0.00 | 0.00 | 0.00 | 82 | 1016.5 |
| 20260507052016 | 2 | 117 | 1.6 | 4.8 | 0.00 | 0.00 | 0.00 | 82 | 1016.5 |
| 20260507051516 | 2 | 101 | 3.2 | 4.8 | 0.00 | 0.00 | 0.00 | 81 | 1016.4 |
| 20260507051018 | 2 | 102 | 3.2 | 4.8 | 0.00 | 0.00 | 0.00 | 81 | 1016.3 |
| 20260507050513 | 2 | 96 | 1.6 | 4.8 | 0.00 | 0.00 | 0.00 | 82 | 1016.3 |
| 20260507050035 | 2 | 86 | 1.6 | 4.8 | 0.00 | 0.00 | 0.00 | 82 | 1016.2 |
| 20260507045513 | 2 | 88 | 1.6 | 3.2 | 0.00 | 0.00 | 0.00 | 82 | 1016.2 |
| 20260507044521 | 2 | 74 | 1.6 | 4.8 | 0.00 | 0.00 | 0.00 | 82 | 1016.2 |
| 20260507044014 | 2 | 101 | 1.6 | 4.8 | 0.00 | 0.00 | 0.00 | 82 | 1016.2 |
| 20260507043514 | 2 | 91 | 1.6 | 4.8 | 0.00 | 0.00 | 0.00 | 82 | 1016.2 |
| 20260507043014 | 2 | 91 | 3.2 | 4.8 | 0.00 | 0.00 | 0.00 | 81 | 1016.2 |
| 20260507042514 | 2 | 88 | 1.6 | 4.8 | 0.00 | 0.00 | 0.00 | 81 | 1016.2 |
| 20260507042014 | 1 | 101 | 3.2 | 4.8 | 0.00 | 0.00 | 0.00 | 81 | 1016.2 |
| 20260507041513 | 1 | 91 | 1.6 | 4.8 | 0.00 | 0.00 | 0.00 | 81 | 1016.2 |
| 20260507041013 | 1 | 91 | 1.6 | 4.8 | 0.00 | 0.00 | 0.00 | 80 | 1016.1 |
| 20260507040512 | 1 | 91 | 1.6 | 6.4 | 0.00 | 0.00 | 0.00 | 80 | 1016.1 |
| 20260507040014 | 1 | 97 | 3.2 | 6.4 | 0.00 | 0.00 | 0.00 | 80 | 1016.1 |
| 20260507035512 | 1 | 98 | 3.2 | 6.4 | 0.00 | 0.00 | 0.00 | 80 | 1016.1 |
| 20260507034512 | 1 | 103 | 4.8 | 6.4 | 0.00 | 0.00 | 0.00 | 80 | 1016.0 |
| 20260507034017 | 1 | 101 | 4.8 | 6.4 | 0.00 | 0.00 | 0.00 | 80 | 1016.0 |
| 20260507033511 | 1 | 98 | 4.8 | 9.7 | 0.00 | 0.00 | 0.00 | 80 | 1016.0 |
| 20260507033016 | 1 | 96 | 4.8 | 9.7 | 0.00 | 0.00 | 0.00 | 80 | 1016.0 |
| 20260507032511 | 1 | 105 | 4.8 | 9.7 | 0.00 | 0.00 | 0.00 | 80 | 1016.0 |
| 20260507032010 | 1 | 100 | 4.8 | 6.4 | 0.00 | 0.00 | 0.00 | 80 | 1016.0 |
| 20260507031510 | 1 | 103 | 4.8 | 6.4 | 0.00 | 0.00 | 0.00 | 79 | 1015.9 |
| 20260507031010 | 1 | 101 | 4.8 | 6.4 | 0.00 | 0.00 | 0.00 | 79 | 1015.9 |
| 20260507030510 | 1 | 96 | 4.8 | 9.7 | 0.00 | 0.00 | 0.00 | 79 | 1016.0 |
| 20260507030009 | 1 | 104 | 4.8 | 9.7 | 0.00 | 0.00 | 0.00 | 79 | 1016.0 |
| 20260507025509 | 1 | 97 | 4.8 | 9.7 | 0.00 | 0.00 | 0.00 | 78 | 1015.8 |
| 20260507024515 | 1 | 113 | 4.8 | 9.7 | 0.00 | 0.00 | 0.00 | 79 | 1015.8 |
| 20260507024009 | 1 | 105 | 4.8 | 9.7 | 0.00 | 0.00 | 0.00 | 78 | 1015.8 |
| 20260507023509 | 1 | 113 | 3.2 | 9.7 | 0.00 | 0.00 | 0.00 | 78 | 1015.8 |
| 20260507023007 | 1 | 102 | 4.8 | 6.4 | 0.00 | 0.00 | 0.00 | 78 | 1015.7 |
| 20260507022506 | 1 | 92 | 4.8 | 6.4 | 0.00 | 0.00 | 0.00 | 78 | 1015.7 |
| 20260507022006 | 1 | 96 | 4.8 | 6.4 | 0.00 | 0.00 | 0.00 | 78 | 1015.7 |
| 20260507021516 | 2 | 105 | 4.8 | 6.4 | 0.00 | 0.00 | 0.00 | 78 | 1015.7 |
| 20260507021005 | 2 | 112 | 4.8 | 6.4 | 0.00 | 0.00 | 0.00 | 78 | 1015.6 |
| 20260507020505 | 2 | 111 | 4.8 | 6.4 | 0.00 | 0.00 | 0.00 | 78 | 1015.6 |
| 20260507020005 | 2 | 92 | 3.2 | 6.4 | 0.00 | 0.00 | 0.00 | 78 | 1015.6 |
| 20260507015506 | 2 | 76 | 3.2 | 9.7 | 0.00 | 0.00 | 0.00 | 78 | 1015.7 |
| 20260507014503 | 2 | 94 | 4.8 | 9.7 | 0.00 | 0.00 | 0.00 | 78 | 1015.6 |
| 20260507014002 | 2 | 110 | 4.8 | 9.7 | 0.00 | 0.00 | 0.00 | 78 | 1015.6 |
| 20260507013502 | 2 | 109 | 4.8 | 9.7 | 0.00 | 0.00 | 0.00 | 78 | 1015.6 |
| 20260507013004 | 2 | 98 | 4.8 | 6.4 | 0.00 | 0.00 | 0.00 | 78 | 1015.7 |
| 20260507012502 | 2 | 98 | 3.2 | 6.4 | 0.00 | 0.00 | 0.00 | 77 | 1015.6 |
| 20260507012100 | 2 | 110 | 4.8 | 6.4 | 0.00 | 0.00 | 0.00 | 77 | 1015.6 |
| 20260507011604 | 2 | 95 | 3.2 | 6.4 | 0.00 | 0.00 | 0.00 | 77 | 1015.5 |
| 20260507011057 | 2 | 106 | 3.2 | 6.4 | 0.00 | 0.00 | 0.00 | 77 | 1015.5 |
| 20260507010557 | 2 | 80 | 3.2 | 6.4 | 0.00 | 0.00 | 0.00 | 77 | 1015.5 |
| 20260507010056 | 2 | 86 | 3.2 | 6.4 | 0.00 | 0.00 | 0.00 | 76 | 1015.5 |
| 20260507005556 | 2 | 90 | 3.2 | 4.8 | 0.00 | 0.00 | 0.00 | 76 | 1015.5 |
| 20260507004555 | 3 | 137 | 1.6 | 4.8 | 0.00 | 0.00 | 0.00 | 77 | 1015.5 |
| 20260507004054 | 3 | 261 | 3.2 | 4.8 | 0.00 | 0.00 | 0.00 | 77 | 1015.5 |
| 20260507003553 | 3 | 239 | 1.6 | 4.8 | 0.00 | 0.00 | 0.00 | 77 | 1015.4 |
| 20260507003051 | 3 | 87 | 0.0 | 3.2 | 0.00 | 0.00 | 0.00 | 77 | 1015.5 |
| 20260507002551 | 2 | 82 | 0.0 | 4.8 | 0.00 | 0.00 | 0.00 | 77 | 1015.4 |
| 20260507002050 | 2 | 81 | 1.6 | 4.8 | 0.00 | 0.00 | 0.00 | 77 | 1015.4 |
| 20260507001548 | 2 | 94 | 0.0 | 4.8 | 0.00 | 0.00 | 0.00 | 77 | 1015.4 |
| 20260507001048 | 2 | 94 | 1.6 | 4.8 | 0.00 | 0.00 | 0.00 | 76 | 1015.4 |
| 20260507000547 | 2 | 96 | 3.2 | 4.8 | 0.00 | 0.00 | 0.00 | 76 | 1015.4 |
| 20260507000047 | 2 | 96 | 3.2 | 4.8 | 0.00 | 0.00 | 0.00 | 76 | 1015.4 |
| 20260506235547 | 2 | 93 | 1.6 | 6.4 | 0.00 | 0.00 | 0.00 | 75 | 1015.5 |
| 20260506234647 | 2 | 96 | 3.2 | 9.7 | 0.00 | 0.00 | 0.00 | 75 | 1015.4 |
| 20260506234047 | 2 | 88 | 4.8 | 9.7 | 0.00 | 0.00 | 0.00 | 75 | 1015.4 |
| 20260506233548 | 2 | 98 | 4.8 | 6.4 | 0.00 | 0.00 | 0.00 | 75 | 1015.4 |
| 20260506233048 | 2 | 113 | 3.2 | 6.4 | 0.00 | 0.00 | 0.00 | 75 | 1015.5 |
| 20260506232551 | 2 | 102 | 3.2 | 6.4 | 0.00 | 0.00 | 0.00 | 76 | 1015.4 |
| 20260506232047 | 2 | 98 | 3.2 | 6.4 | 0.00 | 0.00 | 0.00 | 75 | 1015.4 |
| 20260506231547 | 2 | 103 | 3.2 | 6.4 | 0.00 | 0.00 | 0.00 | 76 | 1015.5 |
| 20260506231047 | 2 | 96 | 3.2 | 6.4 | 0.00 | 0.00 | 0.00 | 76 | 1015.5 |
| 20260506230551 | 2 | 108 | 3.2 | 6.4 | 0.00 | 0.00 | 0.00 | 76 | 1015.4 |
| 20260506230045 | 2 | 104 | 3.2 | 6.4 | 0.00 | 0.00 | 0.00 | 76 | 1015.3 |
| 20260506225548 | 2 | 92 | 3.2 | 6.4 | 0.00 | 0.00 | 0.00 | 76 | 1015.2 |
| 20260506224547 | 2 | 106 | 1.6 | 4.8 | 0.00 | 0.00 | 0.00 | 77 | 1015.2 |
| 20260506224046 | 2 | 101 | 1.6 | 6.4 | 0.00 | 0.00 | 0.00 | 77 | 1015.2 |
| 20260506223543 | 2 | 99 | 3.2 | 6.4 | 0.00 | 0.00 | 0.00 | 77 | 1015.2 |
| 20260506223048 | 2 | 88 | 3.2 | 6.4 | 0.00 | 0.00 | 0.00 | 77 | 1015.2 |
| 20260506222545 | 2 | 93 | 3.2 | 6.4 | 0.00 | 0.00 | 0.00 | 77 | 1015.2 |
| 20260506222045 | 2 | 98 | 1.6 | 6.4 | 0.00 | 0.00 | 0.00 | 76 | 1015.2 |
| 20260506221543 | 2 | 89 | 1.6 | 6.4 | 0.00 | 0.00 | 0.00 | 76 | 1015.2 |
| 20260506221044 | 2 | 82 | 1.6 | 4.8 | 0.00 | 0.00 | 0.00 | 76 | 1015.2 |
| 20260506220543 | 3 | 80 | 1.6 | 3.2 | 0.00 | 0.00 | 0.00 | 76 | 1015.2 |
| 20260506220043 | 3 | 77 | 0.0 | 4.8 | 0.00 | 0.00 | 0.00 | 77 | 1015.2 |
| 20260506215542 | 3 | 73 | 1.6 | 4.8 | 0.00 | 0.00 | 0.00 | 77 | 1015.2 |
| 20260506214544 | 3 | 88 | 1.6 | 4.8 | 0.00 | 0.00 | 0.00 | 77 | 1015.1 |
| 20260506214143 | 3 | 86 | 3.2 | 6.4 | 0.00 | 0.00 | 0.00 | 77 | 1015.1 |
| 20260506213545 | 3 | 82 | 3.2 | 9.7 | 0.00 | 0.00 | 0.00 | 77 | 1015.1 |
| 20260506213042 | 3 | 67 | 4.8 | 11.3 | 0.00 | 0.00 | 0.00 | 77 | 1015.0 |
| 20260506212541 | 3 | 93 | 4.8 | 11.3 | 0.00 | 0.00 | 0.00 | 77 | 1015.0 |
| 20260506212042 | 3 | 86 | 4.8 | 9.7 | 0.00 | 0.00 | 0.00 | 76 | 1015.1 |
| 20260506211541 | 3 | 70 | 4.8 | 9.7 | 0.00 | 0.00 | 0.00 | 77 | 1015.1 |
| 20260506211041 | 3 | 98 | 4.8 | 6.4 | 0.00 | 0.00 | 0.00 | 76 | 1015.2 |
| 20260506210541 | 4 | 72 | 3.2 | 8.0 | 0.00 | 0.00 | 0.00 | 76 | 1015.2 |
| 20260506210041 | 4 | 121 | 1.6 | 8.0 | 0.00 | 0.00 | 0.00 | 76 | 1015.2 |
| 20260506205540 | 4 | 311 | 3.2 | 8.0 | 0.00 | 0.00 | 0.00 | 78 | 1015.2 |
| 20260506204552 | 3 | 100 | 0.0 | 6.4 | 0.00 | 0.00 | 0.00 | 76 | 1015.2 |
| 20260506204045 | 3 | 98 | 3.2 | 4.8 | 0.00 | 0.00 | 0.00 | 75 | 1015.1 |
| 20260506203541 | 3 | 80 | 3.2 | 6.4 | 0.00 | 0.00 | 0.00 | 75 | 1015.1 |
| 20260506203041 | 3 | 103 | 3.2 | 6.4 | 0.00 | 0.00 | 0.00 | 74 | 1015.1 |
| 20260506202541 | 4 | 92 | 3.2 | 6.4 | 0.00 | 0.00 | 0.00 | 74 | 1015.1 |
| 20260506202041 | 4 | 107 | 3.2 | 6.4 | 0.00 | 0.00 | 0.00 | 73 | 1015.1 |
| 20260506201541 | 4 | 63 | 1.6 | 6.4 | 0.00 | 0.00 | 0.00 | 73 | 1015.2 |
| 20260506201043 | 5 | 267 | 0.0 | 6.4 | 0.00 | 0.00 | 0.00 | 74 | 1015.2 |
| 20260506200541 | 4 | 279 | 1.6 | 9.7 | 0.00 | 0.00 | 0.00 | 73 | 1015.3 |
| 20260506200051 | 4 | 57 | 1.6 | 12.9 | 0.00 | 0.00 | 0.00 | 72 | 1015.3 |
| 20260506195540 | 4 | 103 | 0.0 | 4.8 | 0.00 | 0.00 | 0.00 | 71 | 1015.2 |
| 20260506194547 | 5 | 84 | 1.6 | 6.4 | 0.00 | 0.00 | 0.00 | 70 | 1015.1 |
| 20260506194040 | 5 | 84 | 3.2 | 6.4 | 0.00 | 0.00 | 0.00 | 70 | 1015.1 |
| 20260506193543 | 5 | 63 | 3.2 | 4.8 | 0.00 | 0.00 | 0.00 | 70 | 1015.1 |
| 20260506193039 | 5 | 90 | 3.2 | 9.7 | 0.00 | 0.00 | 0.00 | 69 | 1015.1 |
| 20260506192538 | 5 | 77 | 4.8 | 9.7 | 0.00 | 0.00 | 0.00 | 68 | 1015.1 |
| 20260506192041 | 5 | 66 | 3.2 | 9.7 | 0.00 | 0.00 | 0.00 | 68 | 1015.0 |
| 20260506191538 | 5 | 68 | 3.2 | 9.7 | 0.00 | 0.00 | 0.00 | 67 | 1015.0 |
| 20260506191037 | 5 | 65 | 3.2 | 9.7 | 0.00 | 0.00 | 0.00 | 66 | 1014.9 |
| 20260506190538 | 5 | 34 | 3.2 | 9.7 | 0.00 | 0.00 | 0.00 | 66 | 1014.9 |
| 20260506190039 | 5 | 28 | 3.2 | 9.7 | 0.00 | 0.00 | 0.00 | 66 | 1014.9 |
| 20260506185538 | 6 | 26 | 4.8 | 9.7 | 0.00 | 0.00 | 0.00 | 66 | 1014.8 |
| 20260506184540 | 6 | 19 | 4.8 | 16.1 | 0.00 | 0.00 | 0.00 | 69 | 1014.8 |
| 20260506184038 | 6 | 347 | 8.0 | 16.1 | 0.00 | 0.00 | 0.00 | 69 | 1014.8 |
| 20260506183538 | 6 | 13 | 4.8 | 14.5 | 0.00 | 0.00 | 0.00 | 69 | 1014.8 |
| 20260506183045 | 6 | 11 | 3.2 | 16.1 | 0.00 | 0.00 | 0.00 | 68 | 1014.7 |
| 20260506182537 | 6 | 24 | 6.4 | 16.1 | 0.00 | 0.00 | 0.00 | 68 | 1014.7 |
| 20260506182039 | 6 | 13 | 9.7 | 16.1 | 0.00 | 0.00 | 0.00 | 69 | 1014.7 |
| 20260506181537 | 6 | 9 | 6.4 | 14.5 | 0.00 | 0.00 | 0.00 | 65 | 1014.6 |
| 20260506181037 | 6 | 350 | 6.4 | 14.5 | 0.00 | 0.00 | 0.00 | 65 | 1014.6 |
| 20260506180539 | 6 | 360 | 6.4 | 12.9 | 0.00 | 0.00 | 0.00 | 64 | 1014.5 |
| 20260506180036 | 6 | 360 | 3.2 | 12.9 | 0.00 | 0.00 | 0.00 | 63 | 1014.5 |
| 20260506175539 | 6 | 360 | 6.4 | 12.9 | 0.00 | 0.00 | 0.00 | 62 | 1014.5 |
| 20260506174536 | 7 | 355 | 4.8 | 9.7 | 0.00 | 0.00 | 0.00 | 62 | 1014.5 |
| 20260506174036 | 7 | 360 | 3.2 | 9.7 | 0.00 | 0.00 | 0.00 | 60 | 1014.5 |
| 20260506173537 | 7 | 355 | 4.8 | 14.5 | 0.00 | 0.00 | 0.00 | 62 | 1014.5 |
| 20260506173036 | 7 | 360 | 4.8 | 14.5 | 0.00 | 0.00 | 0.00 | 64 | 1014.5 |
| 20260506172535 | 6 | 349 | 6.4 | 14.5 | 0.00 | 0.00 | 0.00 | 64 | 1014.4 |
| 20260506172035 | 6 | 355 | 9.7 | 14.5 | 0.00 | 0.00 | 0.00 | 65 | 1014.5 |
| 20260506171543 | 6 | 348 | 6.4 | 12.9 | 0.00 | 0.00 | 0.00 | 65 | 1014.5 |
| 20260506171035 | 6 | 323 | 6.4 | 14.5 | 0.00 | 0.00 | 0.00 | 64 | 1014.4 |
| 20260506170536 | 6 | 5 | 6.4 | 14.5 | 0.00 | 0.00 | 0.00 | 62 | 1014.4 |
| 20260506170042 | 6 | 350 | 8.0 | 16.1 | 0.00 | 0.00 | 0.00 | 62 | 1014.4 |
| 20260506165538 | 7 | 339 | 8.0 | 16.1 | 0.00 | 0.00 | 0.00 | 64 | 1014.4 |
| 20260506164544 | 7 | 5 | 6.4 | 12.9 | 0.00 | 0.00 | 0.00 | 62 | 1014.3 |
| 20260506164034 | 7 | 360 | 4.8 | 14.5 | 0.00 | 0.00 | 0.00 | 59 | 1014.4 |
| 20260506163532 | 8 | 355 | 8.0 | 14.5 | 0.00 | 0.00 | 0.00 | 59 | 1014.3 |
| 20260506163033 | 8 | 5 | 6.4 | 12.9 | 0.00 | 0.00 | 0.00 | 56 | 1014.3 |
| 20260506162534 | 8 | 29 | 3.2 | 12.9 | 0.00 | 0.00 | 0.00 | 59 | 1014.3 |
| 20260506162032 | 7 | 9 | 4.8 | 12.9 | 0.00 | 0.00 | 0.00 | 59 | 1014.3 |
| 20260506161539 | 7 | 40 | 4.8 | 9.7 | 0.00 | 0.00 | 0.00 | 58 | 1014.3 |
| 20260506161032 | 7 | 17 | 3.2 | 9.7 | 0.00 | 0.00 | 0.00 | 59 | 1014.3 |
| 20260506160534 | 7 | 10 | 3.2 | 14.5 | 0.00 | 0.03 | 0.00 | 60 | 1014.2 |
| 20260506160042 | 7 | 13 | 3.2 | 14.5 | 0.00 | 0.03 | 0.00 | 60 | 1014.2 |
| 20260506155532 | 8 | 23 | 4.8 | 14.5 | 0.00 | 0.03 | 0.00 | 60 | 1014.3 |
| 20260506154533 | 8 | 31 | 4.8 | 14.5 | 0.00 | 0.03 | 0.00 | 60 | 1014.4 |
| 20260506154033 | 8 | 23 | 4.8 | 14.5 | 0.00 | 0.03 | 0.00 | 59 | 1014.3 |
| 20260506153533 | 8 | 30 | 4.8 | 9.7 | 0.00 | 0.03 | 0.00 | 57 | 1014.3 |
| 20260506153032 | 8 | 5 | 1.6 | 6.4 | 0.00 | 0.03 | 0.00 | 55 | 1014.3 |
| 20260506152531 | 8 | 11 | 3.2 | 9.7 | 0.00 | 0.03 | 0.00 | 57 | 1014.3 |
| 20260506152031 | 8 | 19 | 3.2 | 9.7 | 0.00 | 0.03 | 0.00 | 57 | 1014.3 |
| 20260506151536 | 8 | 337 | 1.6 | 8.0 | 0.00 | 0.03 | 0.00 | 58 | 1014.3 |
| 20260506151030 | 8 | 23 | 4.8 | 8.0 | 0.00 | 0.03 | 0.00 | 61 | 1014.4 |
| 20260506150530 | 8 | 355 | 1.6 | 8.0 | 0.00 | 0.03 | 0.00 | 58 | 1014.4 |
| 20260506150032 | 8 | 5 | 3.2 | 8.0 | 0.00 | 0.03 | 0.00 | 60 | 1014.4 |
| 20260506145528 | 8 | 355 | 3.2 | 14.5 | 0.00 | 0.03 | 0.00 | 63 | 1014.4 |
| 20260506144529 | 7 | 360 | 1.6 | 14.5 | 0.00 | 0.03 | 0.00 | 62 | 1014.5 |
| 20260506144038 | 7 | 38 | 1.6 | 14.5 | 0.00 | 0.03 | 0.00 | 62 | 1014.5 |
| 20260506143528 | 7 | 37 | 0.0 | 8.0 | 0.00 | 0.03 | 0.00 | 58 | 1014.5 |
| 20260506143041 | 7 | 360 | 1.6 | 9.7 | 0.00 | 0.03 | 0.00 | 60 | 1014.6 |
| 20260506142528 | 7 | 55 | 3.2 | 9.7 | 0.00 | 0.03 | 0.00 | 59 | 1014.6 |
| 20260506142028 | 7 | 36 | 3.2 | 9.7 | 0.00 | 0.03 | 0.00 | 61 | 1014.6 |
| 20260506141527 | 7 | 5 | 1.6 | 8.0 | 0.00 | 0.03 | 0.00 | 57 | 1014.6 |
| 20260506141029 | 7 | 88 | 1.6 | 8.0 | 0.00 | 0.03 | 0.00 | 57 | 1014.5 |
| 20260506140527 | 7 | 173 | 0.0 | 8.0 | 0.00 | 0.03 | 0.00 | 58 | 1014.4 |
| 20260506140033 | 7 | 196 | 3.2 | 9.7 | 0.00 | 0.03 | 0.00 | 59 | 1014.3 |
| 20260506135528 | 7 | 193 | 3.2 | 11.3 | 0.00 | 0.03 | 0.00 | 57 | 1014.4 |
| 20260506134527 | 8 | 204 | 8.0 | 11.3 | 0.00 | 0.03 | 0.00 | 61 | 1014.4 |
| 20260506134026 | 8 | 221 | 3.2 | 9.7 | 0.00 | 0.03 | 0.00 | 62 | 1014.4 |
| 20260506133526 | 7 | 211 | 3.2 | 9.7 | 0.00 | 0.03 | 0.00 | 61 | 1014.5 |
| 20260506133026 | 8 | 225 | 6.4 | 11.3 | 0.00 | 0.03 | 0.00 | 62 | 1014.5 |
| 20260506132524 | 7 | 197 | 3.2 | 8.0 | 0.00 | 0.03 | 0.00 | 65 | 1014.4 |
| 20260506132024 | 7 | 202 | 4.8 | 8.0 | 0.00 | 0.03 | 0.00 | 63 | 1014.6 |
| 20260506131526 | 8 | 226 | 3.2 | 11.3 | 0.00 | 0.03 | 0.00 | 66 | 1014.6 |